Regional Weather Roundup
Issued by NWS Midland/Odessa, TX

Skip options and go directly to product.
Home | Oldest Version | Next Version | Current Version | All | Text Only | Save Text | Print | Product List | Glossary On

Skip product version selection by date and time.   
847
ASUS44 KMAF 300301
RWRMAF
MIDLAND AREA WEATHER ROUNDUP
NATIONAL WEATHER SERVICE MIDLAND TX
1000 PM CDT SUN MAR 29 2015

...IN SOUTHWEST TEXAS AND SOUTHEAST NEW MEXICO...

CITY           SKY/WX    TMP DP  RH WIND       PRES   REMARKS
ALPINE         PTCLDY    66  29  24 CALM      30.23R
ANDREWS        FAIR      65  34  31 E8        30.15R
ARTESIA        PTCLDY    70  30  23 E7        30.14R
BIG SPRING     CLEAR     74  39  28 NE18      30.14R
CARLSBAD       PTCLDY    70  30  22 E9        30.10R
DRYDEN           N/A     74  53  48 E8        30.03S
FORT STOCKTON  MOCLDY    73  38  27 NE20G30   30.10R
GUAD PASS      CLOUDY    66  23  19 NE15      30.24R
HOBBS          CLEAR     68  28  22 E16G22    30.18R
MARFA          PTCLDY    61  27  27 CALM      30.22R
MIDLAND AIRPK  FAIR      70  39  31 NE9       30.14R
MIDLAND INTL   PTCLDY    71  39  31 E17       30.14R
ODESSA         MOCLDY    68  38  33 E14       30.14R
PECOS          PTCLDY    75  38  26 NE13      30.07R
PRESIDIO       FAIR      71  32  23 MISG      30.04R
SEMINOLE       PTCLDY    64  32  30 CALM      30.17R
SNYDER         CLEAR     69  38  32 NE16      30.15R
WINK           CLEAR     73  32  22 E18G26    30.09R
$$
...OTHER STATIONS IN TEXAS...

CITY           SKY/WX    TMP DP  RH WIND       PRES   REMARKS
ABILENE        FAIR      67  50  54 N7        30.12R
AMARILLO       MOCLDY    53  26  35 E8        30.23R
AUSTIN         CLEAR     68  59  73 S9        30.09R
BROWNSVILLE    CLEAR     70  67  90 SE10      30.12R
CORPUS CHRISTI CLEAR     69  64  84 S17       30.10R
DALLAS FTW     MOCLDY    70  56  61 NE5       30.05R
DEL RIO        CLEAR     75  54  47 E7        30.01R
EL PASO        CLOUDY    80  12   7 W6        30.11R
HOUSTON INT    PTCLDY    70  62  76 S12G17    30.13R
LUBBOCK        PTCLDY    56  25  30 NE10      30.20R
SAN ANGELO     CLEAR     73  46  38 NE15      30.10R
SAN ANTONIO    CLEAR     72  63  73 SE14G22   30.09R
WACO           CLEAR     69  56  62 S14       30.04R
WICHITA FALLS  NOT AVBL
$$
...OTHER LOCATIONS IN NEW MEXICO...

CITY           SKY/WX    TMP DP  RH WIND       PRES   REMARKS
ALAMAGORDO     CLOUDY    68  19  15 S3        30.14R
ALBUQUERQUE    CLOUDY    69  23  17 SE21      30.15R
CANNON AFB     NOT AVBL
CLOVIS         MOCLDY    54  28  37 NE10      30.25S
HOLLOMAN AFB   NOT AVBL
ROSWELL        PTCLDY    67  33  28 E8        30.16R
RUIDOSO        CLOUDY    59  19  21 E7        30.32R
SANTA FE       MOCLDY    60  26  27 E22G38    30.25R
TRUTH OR CONSE CLOUDY    69  15  12 SW6       30.15R
TUCUMCARI      MOCLDY    57  25  29 SE6       30.23R
$$

USA.gov is the U.S. government's official web portal to all federal, state and local government web resources and services.